Weather History for Howell, MI

Change the Weather History Date:

Wednesday, November 7, 2012

  Actual Average Record
Temperature  
Mean Temperature 37 °F -  
Max Temperature 46 °F 49 °F 62 °F (2001)
Min Temperature 28 °F 33 °F 24 °F (2002)
Degree Days  
Heating Degree Days 28    
Moisture  
Dew Point 27 °F    
Average Humidity 71    
Maximum Humidity 89    
Minimum Humidity 47    
Precipitation  
Precipitation 0.00 in - - ()
Sea Level Pressure  
Sea Level Pressure 30.05 in    
Wind  
Wind Speed 3 mph (NE)    
Max Wind Speed 8 mph    
Max Gust Speed -    
Visibility 9 miles    
Events      
Averages and records for this station are not official NWS values.
T = Trace of Precipitation, MM = Missing Value Source: NWS Daily Summary

Daily Weather History Graph

Daily Weather History Graph

Search for Another Location

Airport:

Trip Planner

Search our weather history database for the weather conditions in past years. The results will help you decide how hot, cold, wet, or windy it might be!

Date:

Astronomy

Nov. 07, 2012 Rise Set
Actual Time 7:17 AM EST 5:20 PM EST
Civil Twilight 6:48 AM EST 5:50 PM EST
Nautical Twilight 6:14 AM EST 6:24 PM EST
Astronomical Twilight 5:41 AM EST 6:57 PM EST
Moon 12:01 AM EST (11/7) 1:37 PM EST (11/7)
Length of Visible Light 11h 02m
Length of Day
10h 02m
Last Quarter, 43% of the Moon is Illuminated
Nov 7
Last Quarter
Nov 13
New
Nov 20
First Quarter
Nov 28
Full
Dec 6
Last Quarter

Hourly Weather History & Observations

Time (EST) Temp. Windchill Dew Point Humidity Pressure Visibility Wind Dir Wind Speed Gust Speed Precip Events Conditions
12:15 AM 29.1 °F 25.4 °F 25.5 °F 86% 29.97 in 7.0 mi East 3.5 mph - N/A   Clear
12:34 AM 30.2 °F - 26.4 °F 86% 29.97 in 7.0 mi Calm Calm - N/A   Clear
12:54 AM 30.2 °F - 27.1 °F 88% 29.98 in 7.0 mi Calm Calm - N/A   Clear
1:15 AM 30.0 °F 26.5 °F 27.1 °F 89% 29.98 in 7.0 mi East 3.5 mph - N/A   Clear
1:34 AM 29.7 °F 26.1 °F 26.8 °F 89% 29.98 in 7.0 mi ENE 3.5 mph - N/A   Clear
2:15 AM 29.3 °F 24.3 °F 26.4 °F 89% 29.98 in 7.0 mi ENE 4.6 mph - N/A   Clear
2:34 AM 29.3 °F 25.6 °F 25.9 °F 87% 29.98 in 10.0 mi NE 3.5 mph - N/A   Clear
2:55 AM 29.3 °F 24.3 °F 25.2 °F 85% 29.98 in 10.0 mi NE 4.6 mph - N/A   Clear
3:15 AM 29.1 °F 25.4 °F 24.3 °F 82% 29.98 in 10.0 mi NE 3.5 mph - N/A   Clear
3:55 AM 29.3 °F 24.3 °F 23.4 °F 78% 29.98 in 10.0 mi NE 4.6 mph - N/A   Clear
4:14 AM 28.9 °F 25.2 °F 23.0 °F 78% 29.98 in 10.0 mi NE 3.5 mph - N/A   Clear
4:35 AM 28.9 °F 25.2 °F 22.6 °F 77% 29.99 in 10.0 mi NE 3.5 mph - N/A   Clear
4:55 AM 28.4 °F 24.6 °F 22.6 °F 79% 29.99 in 10.0 mi NE 3.5 mph - N/A   Clear
5:14 AM 28.6 °F 23.5 °F 22.6 °F 78% 29.99 in 10.0 mi NE 4.6 mph - N/A   Clear
5:35 AM 29.1 °F 25.4 °F 22.8 °F 77% 30.00 in 10.0 mi NE 3.5 mph - N/A   Mostly Cloudy
5:54 AM 29.3 °F - 23.0 °F 77% 30.00 in 10.0 mi Calm Calm - N/A   Scattered Clouds
6:14 AM 28.4 °F 24.6 °F 23.0 °F 80% 30.01 in 10.0 mi NE 3.5 mph - N/A   Mostly Cloudy
6:35 AM 28.9 °F - 23.2 °F 79% 30.01 in 10.0 mi Calm Calm - N/A   Overcast
6:54 AM 29.3 °F 25.6 °F 23.9 °F 80% 30.01 in 10.0 mi NE 3.5 mph - N/A   Overcast
7:15 AM 29.7 °F 26.1 °F 24.1 °F 80% 30.02 in 10.0 mi NE 3.5 mph - N/A   Overcast
7:35 AM 29.3 °F - 23.7 °F 80% 30.02 in 10.0 mi Calm Calm - N/A   Scattered Clouds
7:54 AM 28.9 °F - 24.1 °F 82% 30.03 in 10.0 mi Calm Calm - N/A   Clear
8:15 AM 29.8 °F - 25.2 °F 83% 30.03 in 7.0 mi Calm Calm - N/A   Clear
8:35 AM 31.5 °F - 25.9 °F 80% 30.03 in 7.0 mi Calm Calm - N/A   Clear
8:54 AM 32.7 °F 29.6 °F 27.3 °F 81% 30.03 in 7.0 mi NE 3.5 mph - N/A   Clear
9:15 AM 34.9 °F 29.9 °F 28.6 °F 78% 30.03 in 7.0 mi ENE 5.8 mph - N/A   Clear
9:35 AM 36.9 °F 31.4 °F 29.7 °F 75% 30.04 in 7.0 mi ENE 6.9 mph - N/A   Clear
9:54 AM 38.3 °F 33.9 °F 29.8 °F 72% 30.05 in 7.0 mi NNE 5.8 mph - N/A   Clear
10:15 AM 39.2 °F 35.0 °F 29.7 °F 69% 30.05 in 10.0 mi North 5.8 mph - N/A   Scattered Clouds
10:35 AM 40.6 °F 38.6 °F 29.5 °F 64% 30.06 in 10.0 mi NE 3.5 mph - N/A   Clear
10:54 AM 41.0 °F 35.8 °F 30.2 °F 65% 30.06 in 10.0 mi NE 8.1 mph - N/A   Clear
11:15 AM 42.3 °F 38.6 °F 30.7 °F 64% 30.07 in 7.0 mi NE 5.8 mph - N/A   Clear
11:34 AM 42.3 °F 38.6 °F 30.6 °F 63% 30.06 in 10.0 mi NNE 5.8 mph - N/A   Clear
11:55 AM 43.7 °F 40.3 °F 32.0 °F 63% 30.06 in 10.0 mi NE 5.8 mph - N/A   Mostly Cloudy
12:15 PM 43.0 °F - 31.5 °F 64% 30.06 in 10.0 mi Calm Calm - N/A   Overcast
12:34 PM 43.3 °F 40.7 °F 31.3 °F 62% 30.05 in 10.0 mi ENE 4.6 mph - N/A   Overcast
12:55 PM 43.9 °F 42.3 °F 30.4 °F 59% 30.06 in 10.0 mi NE 3.5 mph - N/A   Overcast
1:15 PM 45.3 °F - 29.7 °F 54% 30.05 in 10.0 mi Calm Calm - N/A   Overcast
1:34 PM 44.4 °F 42.9 °F 28.9 °F 55% 30.05 in 10.0 mi North 3.5 mph - N/A   Mostly Cloudy
1:55 PM 45.7 °F 42.7 °F 29.3 °F 53% 30.04 in 10.0 mi NNE 5.8 mph - N/A   Mostly Cloudy
2:15 PM 45.0 °F 43.5 °F 28.9 °F 53% 30.05 in 10.0 mi NNE 3.5 mph - N/A   Scattered Clouds
2:34 PM 46.6 °F - 28.4 °F 49% 30.04 in 10.0 mi North 3.5 mph - N/A   Scattered Clouds
2:55 PM 46.0 °F 43.9 °F 28.6 °F 51% 30.04 in 10.0 mi NE 4.6 mph - N/A   Mostly Cloudy
3:15 PM 45.5 °F - 28.2 °F 51% 30.04 in 10.0 mi Calm Calm - N/A   Scattered Clouds
3:34 PM 46.8 °F - 27.7 °F 47% 30.05 in 10.0 mi ENE 8.1 mph - N/A   Mostly Cloudy
3:55 PM 45.5 °F 44.2 °F 27.3 °F 49% 30.05 in 10.0 mi ENE 3.5 mph - N/A   Scattered Clouds
4:14 PM 45.5 °F - 27.0 °F 48% 30.05 in 10.0 mi Calm Calm - N/A   Clear
4:40 PM 45.0 °F - 27.1 °F 50% 30.06 in 10.0 mi Calm Calm - N/A   Clear
4:55 PM 44.4 °F 42.9 °F 27.0 °F 50% 30.06 in 10.0 mi North 3.5 mph - N/A   Clear
5:14 PM 43.0 °F - 27.3 °F 54% 30.07 in 10.0 mi Calm Calm - N/A   Clear
5:35 PM 42.3 °F - 27.1 °F 55% 30.08 in 10.0 mi Calm Calm - N/A   Clear
5:55 PM 41.0 °F - 27.1 °F 58% 30.08 in 10.0 mi Calm Calm - N/A   Clear
6:14 PM 40.1 °F - 27.3 °F 60% 30.09 in 10.0 mi Calm Calm - N/A   Clear
6:35 PM 39.7 °F 37.6 °F 27.5 °F 62% 30.10 in 10.0 mi NNW 3.5 mph - N/A   Clear
6:55 PM 38.8 °F 35.4 °F 27.9 °F 65% 30.10 in 10.0 mi NNW 4.6 mph - N/A   Clear
7:14 PM 38.5 °F - 27.7 °F 65% 30.10 in 10.0 mi Calm Calm - N/A   Clear
7:35 PM 37.8 °F 35.3 °F 28.0 °F 68% 30.10 in 10.0 mi North 3.5 mph - N/A   Clear
7:54 PM 37.4 °F - 28.2 °F 69% 30.11 in 10.0 mi Calm Calm - N/A   Clear
8:15 PM 36.3 °F - 28.2 °F 72% 30.11 in 10.0 mi Calm Calm - N/A   Clear
8:35 PM 34.9 °F - 27.7 °F 75% 30.12 in 10.0 mi Calm Calm - N/A   Clear
9:15 PM 34.2 °F - 27.9 °F 78% 30.14 in 10.0 mi Calm Calm - N/A   Clear
9:35 PM 33.4 °F - 27.9 °F 80% 30.14 in 10.0 mi Calm Calm - N/A   Clear
9:54 PM 32.0 °F - 27.3 °F 83% 30.14 in 10.0 mi Calm Calm - N/A   Clear
10:15 PM 32.2 °F - 27.9 °F 84% 30.14 in 10.0 mi Calm Calm - N/A   Clear
10:34 PM 30.4 °F - 26.2 °F 85% 30.14 in 7.0 mi Calm Calm - N/A   Clear
10:55 PM 31.8 °F - 27.5 °F 84% 30.14 in 10.0 mi Calm Calm - N/A   Clear
11:15 PM 30.6 °F - 26.6 °F 85% 30.15 in 10.0 mi Calm Calm - N/A   Clear
11:34 PM 29.5 °F - 25.9 °F 86% 30.15 in 7.0 mi Calm Calm - N/A   Clear
11:55 PM 31.3 °F - 27.7 °F 87% 30.15 in 10.0 mi Calm Calm - N/A   Clear